SCP
0 0 0 0 0 0 0 0 0 0 0 0 0 0 0 0 0 -0 0 0 0 0 0 0 0 -0 -0 0 -0 -0 -0 -0 -0 0 0 0 0 0 -0 -0 -0 0 -0 -0 -0
0 0 0 0 0 0 0 0 0 0 0 0 0 0 0 0 0 0 0 0 0 0 0 0 -0 -0 -0 -0 -0 -0 -0 0 0 -0 -0 -0 0 0 -0 0 -0 -0 -0 -0 -0
0 0 0 0 0 0 0 0 0 0 0 0 0 0 0 0 0 0 0 0 -0 0 0 0 0 0 0 0 0 0 0 0 -0 0 -0 -0 0 0 -0 -0 -0 -0 -0 -0 -0
0 0 0 0 0 0 0 0 0 0 0 0 0 0 0 0 0 0 0 -0 0 0 0 0 0 0 0 0 0 0 0 0 -0 -0 -0 -0 0 0 -0 0 -0 -0 -0 -0 -0
0 0 0 0 0 0 0 0 0 0 0 0 0 0 0 0 0 0 0 0 0 0 0 0 -0 0 0 0 0 0 0 -0 -0 -0 -0 -0 0 0 0 0 -0 -0 -0 -0 -0
-0 -0 0 0 0 0 0 0 0 0 0 0 0 0 0 0 0 0 0 0 0 0 0 0 0 0 0 0 0 0 0 0 0 -0 0 -0 0 0 0 0 -0 -0 -0 -0 -0
-0 -0 0 0 0 0 0 0 0 0 0 0 0 0 0 0 0 0 0 0 0 0 0 -0 0 0 0 0 0 0 0 0 -0 -0 0 -0 -0 -0 0 0 -0 -0 0 0 0
-0 -0 -0 -0 0 0 0 0 0 0 0 0 0 0 0 0 0 0 0 0 0 0 0 0 0 0 0 0 0 0 0 0 -0 -0 -0 0 0 0 0 0 -0 -0 0 0 -0
-0 -0 -0 -0 0 0 0 0 -0 -0 -0 0 0 0 0 0 0 -0 0 0 0 0 0 0 0 0 0 0 0 0 0 0 0 -0 -0 -0 -0 0 0 0 -0 -0 0 -0 -0
0 0 -0 -0 0 0 0 -0 -0 -0 -0 -0 -0 0 0 0 0 0 0 0 0 0 0 0 0 0 0 0 0 0 0 0 0 0 0 0 -0 -0 0 0 -0 -0 -0 -0 -0
-0 0 0 0 0 0 0 0 0 0 0 0 -0 0 0 0 0 0 0 0 0 0 0 0 0 0 0 0 0 0 0 0 0 0 0 0 0 -0 -0 -0 0 -0 -0 0 -0
0 0 0 0 0 0 0 0 0 0 0 0 0 0 0 0 0 0 0 0 0 0 0 0 0 0 0 0 -0 0 0 0 0 0 0 0 0 0 -0 0 0 0 -0 0 0
0 0 0 0 0 -0 0 0 0 0 0 0 0 -0 0 0 0 0 0 0 0 0 0 0 0 0 0 0 0 0 0 0 0 0 0 0 0 -0 0 0 0 0 0 0 0
-0 0 0 0 -0 -0 0 0 0 -0 0 0 0 0 0 0 0 0 0 0 0 0 0 0 0 0 0 0 0 0 0 0 0 0 0 -0 -0 -0 0 -0 0 0 0 0 0
-0 -0 0 -0 0 0 0 0 0 0 0 0 -0 -0 0 0 0 0 0 0 0 0 0 0 0 0 0 0 0 0 0 0 0 0 0 -0 0 0 0 0 -0 -0 0 0 0
-0 -0 -0 0 0 0 0 0 0 0 0 0 0 0 -0 0 0 0 0 0 0 0 0 0 0 0 0 0 0 0 0 0 0 0 0 0 0 0 -0 0 -0 -0 0 0 0
0 -0 0 0 -0 0 -0 0 0 0 0 0 0 0 0 -0 0 0 0 0 0 0 0 0 0 0 0 0 0 0 0 0 0 0 0 0 0 0 -0 -0 0 -0 -0 0 0
-0 0 -0 0 0 -0 0 0 0 0 0 0 0 0 0 0 -0 0 0 0 0 0 0 0 0 0 0 0 0 0 0 0 0 0 0 0 0 0 0 0 0 0 -0 0 0
-0 -0 -0 -0 0 0 0 0 -0 0 0 0 0 0 0 0 0 0 0 0 0 0 0 0 0 0 0 0 0 0 0 0 0 0 0 0 0 0 0 0 0 0 -0 0 -0
-0 -0 -0 -0 -0 -0 0 0 0 -0 0 0 0 0 0 0 0 0 0 0 0 0 0 0 0 0 0 0 0 0 0 0 0 0 0 0 0 0 0 0 0 0 0 0 0
-0 -0 -0 0 -0 -0 0 -0 0 -0 0 0 0 0 0 -0 0 0 0 0 0 0 0 0 0 0 0 0 0 0 0 0 0 0 0 0 0 0 0 0 0 0 0 0 0
-0 -0 -0 0 0 -0 -0 0 0 -0 -0 -0 0 0 -0 0 0 0 0 0 0 0 0 0 0 0 0 0 0 0 0 0 0 0 0 0 0 0 0 0 0 0 0 0 0
0 -0 -0 0 0 0 0 0 0 -0 0 0 0 0 0 0 0 0 0 0 0 0 0 0 0 0 0 0 0 0 0 0 0 0 0 0 0 0 0 0 0 0 0 0 0
0 0 -0 -0 0 -0 0 -0 -0 0 0 -0 -0 0 0 0 0 0 0 0 0 0 0 0 0 0 0 0 0 0 0 0 0 0 0 0 0 0 0 0 0 0 0 0 0
0 0 0 0 -0 0 0 0 0 0 0 -0 0 -0 0 0 0 0 0 0 0 0 0 0 0 0 0 0 0 0 0 0 0 0 0 0 0 0 0 0 0 0 0 0 0
0 0 0 0 -0 0 -0 0 -0 0 0 -0 0 -0 -0 -0 0 0 0 0 0 0 0 0 0 0 0 0 0 0 0 0 0 0 1 0 0 0 0 0 0 0 0 0 0
-0 0 -0 0 0 0 0 -0 -0 0 -0 -0 -0 0 -0 0 0 0 0 0 0 -0 -0 0 0 0 0 0 0 0 0 0 0 0 0 0 0 0 0 0 0 0 0 0 0
Wind_Speed_500mb
28 27 26 25 24 23 21 21 20 20 22 19 18 18 17 19 21 29 32 13 27 21 30 21 23 29 20 17 28 6 3 5 11 16 12 18 19 49 49 72 59 15 67 83 80
27 28 26 26 26 23 20 19 20 19 21 20 20 16 19 20 24 34 17 25 38 24 31 27 38 33 16 18 11 6 3 8 5 30 22 26 24 28 37 52 50 68 66 90 80
27 27 26 25 24 26 21 18 17 17 19 20 19 18 17 20 19 4 0 30 37 36 22 27 26 28 16 19 17 12 8 12 15 34 34 24 24 21 40 14 68 84 86 90 76
25 26 27 25 24 23 23 19 18 16 16 19 17 16 15 14 6 7 9 17 38 33 29 37 29 19 13 14 24 8 12 13 18 42 35 30 24 15 30 35 69 94 93 89 78
29 26 25 25 23 21 20 20 19 19 16 15 16 13 12 13 17 3 6 13 32 38 41 45 37 25 9 8 19 5 16 19 31 34 39 32 17 16 40 55 73 84 85 84 75
30 29 25 22 22 22 22 19 18 17 17 13 12 13 11 7 8 5 4 8 31 40 46 53 24 19 20 19 15 25 23 26 30 38 29 29 18 14 21 56 66 86 81 72 67
36 34 32 27 23 21 20 18 15 15 14 13 11 14 21 24 13 8 9 9 20 37 50 53 37 20 10 14 25 28 15 14 25 29 13 40 9 18 38 51 61 71 77 71 68
35 34 33 30 27 26 18 13 13 12 9 8 10 13 19 8 20 20 10 15 25 31 45 38 26 33 33 27 16 10 9 18 17 25 27 11 4 9 30 33 42 54 63 63 60
34 34 32 29 27 21 14 9 8 8 3 2 3 10 17 14 30 26 18 9 28 28 41 32 17 24 20 2 7 5 9 8 18 42 20 6 16 36 41 33 38 44 55 41 74
34 36 32 28 22 15 9 8 10 7 1 3 10 14 13 10 22 35 23 13 28 24 18 20 12 5 6 9 7 5 4 7 15 21 9 8 10 30 52 44 50 52 51 44 66
30 33 31 25 20 14 13 11 12 4 15 20 19 30 34 8 17 27 35 27 25 21 10 12 5 11 15 11 11 3 10 21 9 25 14 6 16 14 43 42 42 47 51 47 71
28 29 25 23 17 14 16 12 13 14 22 33 32 47 50 32 14 28 42 32 20 11 7 8 11 16 11 11 11 6 11 4 29 24 15 21 6 2 22 48 52 57 46 58 55
27 25 25 21 21 16 13 6 19 35 13 31 30 36 39 7 21 35 40 49 13 13 10 11 14 12 10 15 13 10 11 13 12 18 15 22 20 15 10 18 42 45 38 56 73
32 25 19 18 15 12 10 22 28 36 10 16 1 13 24 15 11 38 35 36 7 20 8 12 27 12 19 19 9 10 24 15 33 15 11 22 11 8 13 23 33 40 37 44 51
38 29 19 22 24 21 21 34 30 5 7 14 7 12 14 17 5 30 38 36 16 9 13 18 15 18 16 24 15 22 24 20 33 9 11 19 5 8 14 16 24 34 38 46 42
38 31 21 22 21 15 27 33 17 10 6 17 12 13 4 9 9 2 38 41 20 6 8 14 33 15 19 24 21 27 9 5 14 9 2 16 10 9 23 37 23 32 43 52 50
36 33 24 24 12 19 29 26 9 7 9 11 9 10 4 9 8 8 6 12 13 5 8 13 15 15 19 10 13 9 12 2 4 4 12 13 16 15 33 35 46 59 69 60 63
30 29 21 18 9 16 24 9 10 8 4 10 8 15 4 9 9 8 12 9 7 10 3 3 14 10 9 20 17 12 16 11 10 6 5 12 11 5 13 28 35 44 55 50 80
29 17 12 11 7 9 2 10 6 4 7 15 21 13 14 15 11 7 13 17 17 18 15 3 11 14 10 15 19 14 6 18 12 5 9 6 7 8 15 8 17 24 29 38 51
27 15 14 22 12 6 9 7 6 6 12 7 4 8 11 13 11 13 14 9 18 21 26 12 10 9 19 9 11 15 12 3 6 12 9 5 10 7 7 11 13 13 20 12 33
20 15 19 33 17 4 6 9 9 25 2 5 4 7 3 4 5 2 5 10 15 15 19 8 7 14 7 4 17 3 7 9 8 10 11 7 2 7 18 20 19 20 16 8 12
10 4 12 44 11 6 5 7 4 11 29 13 9 7 4 1 3 2 5 9 7 6 9 8 6 5 15 17 14 10 16 14 10 9 6 8 4 10 16 25 31 19 14 5 4
23 12 6 45 8 4 7 4 7 4 10 2 2 5 7 8 3 3 6 13 30 2 1 9 6 8 16 13 12 8 4 9 9 7 7 11 9 14 19 20 37 38 23 14 13
7 7 7 16 15 15 6 1 7 14 11 16 6 3 4 4 8 7 7 7 19 6 21 11 5 11 8 16 12 16 14 4 11 8 10 5 26 23 23 19 20 32 29 23 18
9 5 17 3 5 6 7 7 5 8 11 24 6 12 3 1 4 9 6 7 4 29 7 9 3 8 14 21 16 9 12 21 6 12 12 30 32 31 27 22 32 33 30 24 25
10 10 17 16 15 16 11 8 15 5 9 10 11 20 15 11 7 5 8 8 4 9 12 4 3 14 14 15 27 14 26 18 10 18 28 32 28 21 37 42 39 35 38 34 31
19 10 7 14 10 11 5 9 11 9 21 27 13 5 11 10 23 29 18 21 10 12 4 5 7 6 9 26 26 13 22 20 17 22 45 31 23 49 35 41 42 39 40 41 42
Wind_Direction_500mb
328 325 321 316 312 311 313 311 307 303 300 299 298 301 297 286 272 266 254 233 191 178 167 170 187 176 182 225 220 154 309 191 153 154 142 215 129 118 130 129 137 145 148 148 154
327 326 324 322 315 306 305 310 309 303 299 294 294 296 299 293 284 269 266 209 181 180 180 180 178 173 198 225 217 130 287 226 223 159 180 172 136 132 141 145 126 126 145 153 156
330 325 324 324 319 313 305 301 304 304 297 291 289 292 299 303 305 1 265 206 193 186 188 191 174 175 219 229 178 151 217 220 246 159 165 148 118 130 142 160 144 146 152 157 156
335 329 328 328 324 321 313 304 301 300 295 289 283 283 295 294 214 125 42 187 190 186 190 192 195 199 209 204 180 124 284 238 190 157 155 151 118 113 194 174 150 152 158 159 164
342 339 332 327 325 322 317 311 304 300 292 281 275 272 280 271 248 104 48 167 185 181 190 189 206 215 212 217 143 183 190 228 142 151 146 136 111 120 124 150 148 151 156 163 163
340 336 332 328 324 323 320 313 307 303 294 275 262 259 238 254 179 188 294 226 201 189 189 193 206 216 273 223 173 163 140 144 159 135 137 124 127 111 140 148 153 163 167 173 171
342 338 334 330 326 323 322 316 312 308 293 272 243 248 247 231 186 197 304 277 209 199 192 201 212 254 324 316 196 175 145 145 172 151 131 115 94 143 160 156 154 169 176 179 175
343 337 333 332 332 329 330 326 328 321 301 264 240 240 253 215 200 230 229 209 203 201 204 204 227 268 269 273 300 121 95 157 201 166 163 101 117 96 167 167 176 171 183 180 175
349 342 335 332 336 337 336 348 0 2 18 191 201 258 259 194 217 209 208 244 192 192 204 216 283 261 267 25 14 248 172 163 175 193 149 184 156 219 206 194 187 186 181 177 169
352 348 342 340 352 358 1 360 335 304 12 160 238 299 254 230 208 199 208 222 177 180 223 249 231 244 39 82 213 215 166 152 191 181 151 106 181 170 196 197 193 184 192 162 159
353 352 350 352 1 14 2 345 356 260 235 249 275 248 291 332 228 198 191 196 191 186 174 213 113 220 222 198 214 285 319 286 33 120 65 19 96 198 184 200 217 187 190 175 165
343 348 346 341 342 344 346 346 13 321 300 287 269 270 274 282 286 202 193 186 190 200 203 333 227 231 218 242 261 284 272 36 83 100 86 32 341 276 230 207 201 188 191 183 161
340 336 338 331 330 332 332 338 350 324 307 301 242 250 260 248 230 198 204 201 165 197 197 178 244 225 229 257 270 261 232 241 130 100 43 84 314 269 225 181 204 202 198 182 174
336 338 332 331 314 292 344 5 348 305 30 288 205 239 244 255 272 189 207 202 220 183 207 219 248 220 237 258 210 281 246 244 143 150 179 161 218 266 197 200 188 180 174 169 176
338 327 322 311 314 297 348 335 329 311 7 338 200 149 186 187 155 184 194 210 207 200 131 246 221 233 229 234 223 239 262 247 177 132 132 205 133 267 147 212 202 206 159 175 170
330 320 311 298 309 351 326 339 328 52 260 327 51 353 125 213 251 265 193 205 228 208 273 232 267 177 224 238 231 250 256 129 115 110 10 200 146 204 194 202 174 203 194 180 179
326 314 294 275 276 323 325 339 51 114 340 342 353 348 6 278 236 165 194 182 196 116 327 308 275 263 226 258 292 179 92 310 59 121 212 134 173 233 204 183 192 188 200 189 184
327 308 281 255 284 309 334 51 63 346 298 268 299 328 113 324 271 220 152 187 265 122 92 243 306 201 217 192 212 203 156 154 172 184 225 49 208 309 197 193 188 196 197 197 184
341 320 278 187 236 291 16 56 212 325 294 353 326 48 11 357 66 48 9 190 205 177 170 202 268 314 264 215 158 253 132 189 138 89 98 163 330 317 35 53 128 144 169 192 200
351 327 192 168 175 321 69 188 246 247 351 22 338 23 48 3 35 33 7 61 342 31 342 224 266 243 286 223 225 169 180 126 345 141 233 247 148 232 117 49 101 89 103 169 214
348 331 148 168 180 218 148 207 249 285 272 228 29 83 135 70 83 333 246 336 35 333 339 7 125 286 339 184 217 347 122 77 134 131 172 164 247 287 133 103 90 71 80 91 230
8 354 88 174 88 77 137 186 230 301 324 245 115 119 97 178 51 220 182 172 327 26 347 320 142 283 235 268 250 168 176 141 126 248 111 102 108 102 110 118 105 91 84 82 148
338 288 54 178 118 304 297 154 207 234 297 83 334 129 193 174 84 198 279 209 265 302 64 322 6 12 345 350 8 23 97 118 121 106 181 135 176 159 147 149 140 132 136 139 151
6 5 72 55 134 137 136 160 264 278 250 71 310 54 145 150 235 187 210 298 259 292 55 34 68 136 185 256 266 292 335 16 117 111 144 137 137 154 151 150 124 117 131 134 153
30 342 348 305 327 97 114 170 76 13 35 44 359 341 13 22 28 346 207 271 0 121 75 106 16 16 283 291 274 267 295 296 137 168 131 161 153 158 159 149 131 121 122 120 131
41 14 348 342 346 78 63 358 84 37 61 359 57 48 30 87 30 298 4 27 129 13 153 180 338 13 308 318 349 310 8 306 125 103 91 129 129 145 148 132 129 130 121 111 111
27 359 344 347 1 82 343 38 37 60 55 67 18 48 27 350 325 302 293 291 227 139 164 112 110 57 291 324 323 17 334 303 119 135 133 149 158 151 144 140 136 130 128 125 118
Wind_Speed_850mb
28 27 26 25 24 23 21 21 20 20 22 19 18 18 17 19 21 29 32 13 27 21 30 21 23 29 20 17 28 6 3 5 11 16 12 18 19 49 49 72 59 15 67 83 80
27 28 26 26 26 23 20 19 20 19 21 20 20 16 19 20 24 34 17 25 38 24 31 27 38 33 16 18 11 6 3 8 5 30 22 26 24 28 37 52 50 68 66 90 80
27 27 26 25 24 26 21 18 17 17 19 20 19 18 17 20 19 4 0 30 37 36 22 27 26 28 16 19 17 12 8 12 15 34 34 24 24 21 40 14 68 84 86 90 76
25 26 27 25 24 23 23 19 18 16 16 19 17 16 15 14 6 7 9 17 38 33 29 37 29 19 13 14 24 8 12 13 18 42 35 30 24 15 30 35 69 94 93 89 78
29 26 25 25 23 21 20 20 19 19 16 15 16 13 12 13 17 3 6 13 32 38 41 45 37 25 9 8 19 5 16 19 31 34 39 32 17 16 40 55 73 84 85 84 75
30 29 25 22 22 22 22 19 18 17 17 13 12 13 11 7 8 5 4 8 31 40 46 53 24 19 20 19 15 25 23 26 30 38 29 29 18 14 21 56 66 86 81 72 67
36 34 32 27 23 21 20 18 15 15 14 13 11 14 21 24 13 8 9 9 20 37 50 53 37 20 10 14 25 28 15 14 25 29 13 40 9 18 38 51 61 71 77 71 68
35 34 33 30 27 26 18 13 13 12 9 8 10 13 19 8 20 20 10 15 25 31 45 38 26 33 33 27 16 10 9 18 17 25 27 11 4 9 30 33 42 54 63 63 60
34 34 32 29 27 21 14 9 8 8 3 2 3 10 17 14 30 26 18 9 28 28 41 32 17 24 20 2 7 5 9 8 18 42 20 6 16 36 41 33 38 44 55 41 74
34 36 32 28 22 15 9 8 10 7 1 3 10 14 13 10 22 35 23 13 28 24 18 20 12 5 6 9 7 5 4 7 15 21 9 8 10 30 52 44 50 52 51 44 66
30 33 31 25 20 14 13 11 12 4 15 20 19 30 34 8 17 27 35 27 25 21 10 12 5 11 15 11 11 3 10 21 9 25 14 6 16 14 43 42 42 47 51 47 71
28 29 25 23 17 14 16 12 13 14 22 33 32 47 50 32 14 28 42 32 20 11 7 8 11 16 11 11 11 6 11 4 29 24 15 21 6 2 22 48 52 57 46 58 55
27 25 25 21 21 16 13 6 19 35 13 31 30 36 39 7 21 35 40 49 13 13 10 11 14 12 10 15 13 10 11 13 12 18 15 22 20 15 10 18 42 45 38 56 73
32 25 19 18 15 12 10 22 28 36 10 16 1 13 24 15 11 38 35 36 7 20 8 12 27 12 19 19 9 10 24 15 33 15 11 22 11 8 13 23 33 40 37 44 51
38 29 19 22 24 21 21 34 30 5 7 14 7 12 14 17 5 30 38 36 16 9 13 18 15 18 16 24 15 22 24 20 33 9 11 19 5 8 14 16 24 34 38 46 42
38 31 21 22 21 15 27 33 17 10 6 17 12 13 4 9 9 2 38 41 20 6 8 14 33 15 19 24 21 27 9 5 14 9 2 16 10 9 23 37 23 32 43 52 50
36 33 24 24 12 19 29 26 9 7 9 11 9 10 4 9 8 8 6 12 13 5 8 13 15 15 19 10 13 9 12 2 4 4 12 13 16 15 33 35 46 59 69 60 63
30 29 21 18 9 16 24 9 10 8 4 10 8 15 4 9 9 8 12 9 7 10 3 3 14 10 9 20 17 12 16 11 10 6 5 12 11 5 13 28 35 44 55 50 80
29 17 12 11 7 9 2 10 6 4 7 15 21 13 14 15 11 7 13 17 17 18 15 3 11 14 10 15 19 14 6 18 12 5 9 6 7 8 15 8 17 24 29 38 51
27 15 14 22 12 6 9 7 6 6 12 7 4 8 11 13 11 13 14 9 18 21 26 12 10 9 19 9 11 15 12 3 6 12 9 5 10 7 7 11 13 13 20 12 33
20 15 19 33 17 4 6 9 9 25 2 5 4 7 3 4 5 2 5 10 15 15 19 8 7 14 7 4 17 3 7 9 8 10 11 7 2 7 18 20 19 20 16 8 12
10 4 12 44 11 6 5 7 4 11 29 13 9 7 4 1 3 2 5 9 7 6 9 8 6 5 15 17 14 10 16 14 10 9 6 8 4 10 16 25 31 19 14 5 4
23 12 6 45 8 4 7 4 7 4 10 2 2 5 7 8 3 3 6 13 30 2 1 9 6 8 16 13 12 8 4 9 9 7 7 11 9 14 19 20 37 38 23 14 13
7 7 7 16 15 15 6 1 7 14 11 16 6 3 4 4 8 7 7 7 19 6 21 11 5 11 8 16 12 16 14 4 11 8 10 5 26 23 23 19 20 32 29 23 18
9 5 17 3 5 6 7 7 5 8 11 24 6 12 3 1 4 9 6 7 4 29 7 9 3 8 14 21 16 9 12 21 6 12 12 30 32 31 27 22 32 33 30 24 25
10 10 17 16 15 16 11 8 15 5 9 10 11 20 15 11 7 5 8 8 4 9 12 4 3 14 14 15 27 14 26 18 10 18 28 32 28 21 37 42 39 35 38 34 31
19 10 7 14 10 11 5 9 11 9 21 27 13 5 11 10 23 29 18 21 10 12 4 5 7 6 9 26 26 13 22 20 17 22 45 31 23 49 35 41 42 39 40 41 42
Wind_Direction_850mb
328 325 321 316 312 311 313 311 307 303 300 299 298 301 297 286 272 266 254 233 191 178 167 170 187 176 182 225 220 154 309 191 153 154 142 215 129 118 130 129 137 145 148 148 154
327 326 324 322 315 306 305 310 309 303 299 294 294 296 299 293 284 269 266 209 181 180 180 180 178 173 198 225 217 130 287 226 223 159 180 172 136 132 141 145 126 126 145 153 156
330 325 324 324 319 313 305 301 304 304 297 291 289 292 299 303 305 1 265 206 193 186 188 191 174 175 219 229 178 151 217 220 246 159 165 148 118 130 142 160 144 146 152 157 156
335 329 328 328 324 321 313 304 301 300 295 289 283 283 295 294 214 125 42 187 190 186 190 192 195 199 209 204 180 124 284 238 190 157 155 151 118 113 194 174 150 152 158 159 164
342 339 332 327 325 322 317 311 304 300 292 281 275 272 280 271 248 104 48 167 185 181 190 189 206 215 212 217 143 183 190 228 142 151 146 136 111 120 124 150 148 151 156 163 163
340 336 332 328 324 323 320 313 307 303 294 275 262 259 238 254 179 188 294 226 201 189 189 193 206 216 273 223 173 163 140 144 159 135 137 124 127 111 140 148 153 163 167 173 171
342 338 334 330 326 323 322 316 312 308 293 272 243 248 247 231 186 197 304 277 209 199 192 201 212 254 324 316 196 175 145 145 172 151 131 115 94 143 160 156 154 169 176 179 175
343 337 333 332 332 329 330 326 328 321 301 264 240 240 253 215 200 230 229 209 203 201 204 204 227 268 269 273 300 121 95 157 201 166 163 101 117 96 167 167 176 171 183 180 175
349 342 335 332 336 337 336 348 0 2 18 191 201 258 259 194 217 209 208 244 192 192 204 216 283 261 267 25 14 248 172 163 175 193 149 184 156 219 206 194 187 186 181 177 169
352 348 342 340 352 358 1 360 335 304 12 160 238 299 254 230 208 199 208 222 177 180 223 249 231 244 39 82 213 215 166 152 191 181 151 106 181 170 196 197 193 184 192 162 159
353 352 350 352 1 14 2 345 356 260 235 249 275 248 291 332 228 198 191 196 191 186 174 213 113 220 222 198 214 285 319 286 33 120 65 19 96 198 184 200 217 187 190 175 165
343 348 346 341 342 344 346 346 13 321 300 287 269 270 274 282 286 202 193 186 190 200 203 333 227 231 218 242 261 284 272 36 83 100 86 32 341 276 230 207 201 188 191 183 161
340 336 338 331 330 332 332 338 350 324 307 301 242 250 260 248 230 198 204 201 165 197 197 178 244 225 229 257 270 261 232 241 130 100 43 84 314 269 225 181 204 202 198 182 174
336 338 332 331 314 292 344 5 348 305 30 288 205 239 244 255 272 189 207 202 220 183 207 219 248 220 237 258 210 281 246 244 143 150 179 161 218 266 197 200 188 180 174 169 176
338 327 322 311 314 297 348 335 329 311 7 338 200 149 186 187 155 184 194 210 207 200 131 246 221 233 229 234 223 239 262 247 177 132 132 205 133 267 147 212 202 206 159 175 170
330 320 311 298 309 351 326 339 328 52 260 327 51 353 125 213 251 265 193 205 228 208 273 232 267 177 224 238 231 250 256 129 115 110 10 200 146 204 194 202 174 203 194 180 179
326 314 294 275 276 323 325 339 51 114 340 342 353 348 6 278 236 165 194 182 196 116 327 308 275 263 226 258 292 179 92 310 59 121 212 134 173 233 204 183 192 188 200 189 184
327 308 281 255 284 309 334 51 63 346 298 268 299 328 113 324 271 220 152 187 265 122 92 243 306 201 217 192 212 203 156 154 172 184 225 49 208 309 197 193 188 196 197 197 184
341 320 278 187 236 291 16 56 212 325 294 353 326 48 11 357 66 48 9 190 205 177 170 202 268 314 264 215 158 253 132 189 138 89 98 163 330 317 35 53 128 144 169 192 200
351 327 192 168 175 321 69 188 246 247 351 22 338 23 48 3 35 33 7 61 342 31 342 224 266 243 286 223 225 169 180 126 345 141 233 247 148 232 117 49 101 89 103 169 214
348 331 148 168 180 218 148 207 249 285 272 228 29 83 135 70 83 333 246 336 35 333 339 7 125 286 339 184 217 347 122 77 134 131 172 164 247 287 133 103 90 71 80 91 230
8 354 88 174 88 77 137 186 230 301 324 245 115 119 97 178 51 220 182 172 327 26 347 320 142 283 235 268 250 168 176 141 126 248 111 102 108 102 110 118 105 91 84 82 148
338 288 54 178 118 304 297 154 207 234 297 83 334 129 193 174 84 198 279 209 265 302 64 322 6 12 345 350 8 23 97 118 121 106 181 135 176 159 147 149 140 132 136 139 151
6 5 72 55 134 137 136 160 264 278 250 71 310 54 145 150 235 187 210 298 259 292 55 34 68 136 185 256 266 292 335 16 117 111 144 137 137 154 151 150 124 117 131 134 153
30 342 348 305 327 97 114 170 76 13 35 44 359 341 13 22 28 346 207 271 0 121 75 106 16 16 283 291 274 267 295 296 137 168 131 161 153 158 159 149 131 121 122 120 131
41 14 348 342 346 78 63 358 84 37 61 359 57 48 30 87 30 298 4 27 129 13 153 180 338 13 308 318 349 310 8 306 125 103 91 129 129 145 148 132 129 130 121 111 111
27 359 344 347 1 82 343 38 37 60 55 67 18 48 27 350 325 302 293 291 227 139 164 112 110 57 291 324 323 17 334 303 119 135 133 149 158 151 144 140 136 130 128 125 118